Theta_e
302 296 293 295 298 297 294 291 290 293 299 296 293 295 298 301 301 301 302 302 302 305 310 312 316 321 324 326 325 321 320 321 322 321 319 320 319 320 319 320 320 321 323 323
297 293 297 299 300 298 295 292 291 294 298 294 294 293 296 300 301 301 301 301 302 303 306 308 313 317 321 324 326 325 321 321 322 323 322 321 320 321 321 321 320 321 320 322
292 294 299 298 296 295 295 292 292 291 295 296 293 292 294 297 300 301 302 302 303 303 304 305 307 315 320 322 324 326 325 322 322 322 322 319 318 317 318 320 320 320 320 321
294 298 297 296 294 296 290 296 295 293 290 285 293 284 290 293 296 299 301 301 303 303 305 307 308 311 317 321 324 327 327 325 322 322 321 320 318 317 319 320 321 321 321 320
291 294 293 293 294 296 292 297 293 293 290 287 289 286 288 293 293 296 299 299 300 302 305 307 308 309 313 320 323 325 327 326 325 322 322 320 319 319 319 320 320 321 321 321
293 298 297 296 298 298 298 293 293 291 289 284 288 286 287 290 294 297 299 299 301 302 302 304 308 310 311 315 321 324 325 326 326 324 323 321 320 319 319 318 319 320 321 321
291 292 296 298 293 296 294 290 283 281 281 280 287 285 289 294 297 296 297 297 299 300 301 302 303 303 306 307 317 322 324 324 326 326 324 323 322 322 320 319 319 319 319 320
283 282 291 296 294 291 292 291 281 272 275 278 284 283 288 297 300 301 301 302 302 300 300 302 303 305 306 306 308 318 321 322 325 326 326 325 325 324 323 322 321 321 321 321
283 283 292 294 295 296 290 287 292 281 278 276 281 287 294 296 297 297 297 298 296 296 297 301 304 304 305 306 308 312 319 321 323 324 326 326 327 325 324 324 324 323 323 324
287 281 289 292 294 295 292 294 285 286 277 276 279 280 285 291 294 296 295 295 295 296 296 297 298 300 302 303 306 306 309 317 321 323 324 325 326 327 326 326 324 324 324 325
290 285 284 291 289 289 289 288 287 286 282 276 275 280 291 293 293 293 294 295 295 294 296 296 297 298 298 298 299 300 303 306 312 321 323 323 324 325 326 326 325 325 325 325
292 288 279 285 292 294 293 290 289 282 280 283 280 281 294 295 295 295 294 295 296 296 296 296 296 296 297 297 298 298 299 301 304 310 318 320 323 324 325 325 325 325 325 326
293 286 277 281 286 289 289 290 292 290 285 280 280 283 293 293 292 294 293 293 295 296 296 296 297 298 297 297 297 297 297 298 300 302 306 311 318 321 323 324 325 325 325 325
296 287 283 279 282 287 285 288 290 289 283 283 283 285 289 292 292 293 294 293 294 295 297 298 297 298 299 299 298 297 296 297 299 300 303 305 309 316 320 322 323 323 324 324
293 283 285 286 286 287 287 288 288 287 288 283 286 286 290 292 294 294 293 294 294 294 295 296 296 297 299 301 302 298 298 297 297 298 301 305 308 311 315 316 319 321 320 321
293 284 285 279 287 286 282 286 288 289 289 289 289 287 294 293 291 292 292 293 293 293 295 295 295 296 296 297 298 299 299 298 297 298 300 303 306 307 308 310 311 311 312 313
288 284 284 279 284 283 276 283 284 284 288 289 285 290 293 289 292 292 291 293 293 293 295 294 295 295 295 295 296 296 296 298 298 298 299 300 302 303 305 305 305 305 309 308
288 286 284 277 281 275 283 289 289 287 287 288 289 290 291 292 294 293 294 293 293 294 294 294 294 294 294 294 294 293 293 294 295 295 296 297 298 300 299 300 300 301 302 305
292 286 280 278 272 275 280 284 285 284 284 289 289 290 292 292 292 291 294 294 294 292 293 292 293 293 293 293 293 291 291 291 291 291 293 293 294 296 296 296 297 297 296 295
290 288 282 274 269 267 278 285 288 288 278 288 290 289 290 290 285 287 289 290 289 290 290 289 290 290 290 291 290 289 288 289 289 290 291 292 292 294 296 296 294 291 293 291
283 283 279 272 266 272 283 286 288 276 279 286 286 287 287 286 286 287 288 287 287 286 286 287 286 286 287 287 287 286 287 287 288 288 290 289 289 291 294 292 289 289 289 288
281 277 277 275 274 272 281 285 281 283 280 279 280 279 281 282 283 282 284 282 283 281 282 282 282 282 284 285 285 285 285 287 287 287 288 289 287 289 288 289 287 288 289 289
278 281 279 278 275 276 276 275 275 277 275 274 274 275 277 277 276 278 278 279 278 278 278 280 279 279 282 283 283 283 284 285 286 286 287 287 287 286 287 288 287 288 288 290
282 276 281 279 274 272 272 273 273 272 271 272 272 272 273 272 274 275 275 275 275 275 275 276 275 276 277 279 279 281 283 284 285 285 287 288 287 286 286 286 287 289 289 289
268 272 273 273 272 272 270 268 269 270 270 269 270 270 270 271 272 272 272 272 272 272 273 273 273 274 273 275 276 278 283 284 284 285 286 287 287 286 286 286 288 288 290 291
265 264 267 268 266 266 269 268 267 267 267 267 267 267 269 270 269 269 269 269 269 269 269 269 270 269 269 271 273 279 282 284 283 283 285 287 287 286 286 286 287 290 291 291
Wind_Speed
7 8 23 26 14 13 8 8 9 6 13 11 9 16 15 11 8 10 11 9 9 10 9 9 10 12 14 13 14 16 16 15 11 10 9 10 11 9 7 8 11 11 10 10
8 25 17 10 11 11 12 12 15 5 8 7 8 13 10 10 9 9 11 9 9 8 9 9 9 11 13 17 18 17 17 15 12 10 10 8 9 9 9 8 9 12 12 12
14 15 12 15 16 17 17 19 14 6 6 4 2 11 7 5 7 7 8 7 7 10 11 10 8 11 14 15 16 18 19 18 15 15 7 2 2 2 5 9 10 13 14 13
13 19 18 13 18 17 19 11 7 6 4 6 2 11 9 4 10 14 13 11 12 11 11 10 10 8 12 15 16 17 18 19 17 16 12 16 13 12 13 13 11 12 14 15
17 13 16 19 25 15 12 8 7 6 5 1 12 6 6 6 11 17 11 11 11 12 14 16 15 12 12 15 16 16 17 17 18 19 19 14 15 12 8 9 12 14 13 16
21 5 15 16 13 15 4 4 5 4 4 11 18 9 12 12 18 17 12 10 12 12 12 10 13 13 15 12 15 15 16 17 18 20 21 20 20 17 11 11 11 11 11 11
18 15 5 11 8 12 8 8 5 5 8 13 8 6 20 13 19 11 12 11 11 10 7 7 8 8 9 9 13 15 17 19 18 20 21 23 22 20 18 14 12 12 11 10
16 16 24 14 17 9 15 16 8 9 6 6 4 11 15 17 22 17 19 20 15 8 8 9 8 8 7 7 7 9 15 17 16 19 20 19 20 14 15 17 14 13 13 13
14 13 8 10 6 19 9 13 13 5 2 3 4 6 9 9 17 11 9 2 3 3 6 8 7 5 5 6 6 8 9 12 15 17 18 19 19 21 18 20 16 13 14 12
7 6 6 22 6 10 9 9 6 5 6 9 4 4 9 4 7 6 6 8 3 4 6 5 6 6 6 7 7 5 7 10 14 16 17 17 19 20 19 17 17 16 15 15
7 5 6 13 15 23 6 9 4 4 6 6 1 6 11 15 3 8 7 5 3 1 1 3 4 5 7 7 7 8 7 7 8 13 15 17 16 18 17 17 17 16 16 16
17 3 5 23 14 15 19 16 14 6 6 4 1 7 2 8 8 7 2 4 6 5 5 5 6 7 8 8 8 8 8 7 7 6 7 10 13 14 15 16 17 16 16 17
19 5 4 4 4 2 15 10 15 6 4 9 9 12 5 3 1 1 5 4 2 5 7 7 6 7 8 8 8 8 8 8 8 7 7 7 9 13 16 17 16 15 15 16
19 6 8 11 13 9 11 16 14 15 9 11 11 15 4 9 9 7 6 7 8 7 11 13 8 7 7 8 9 9 9 8 8 7 7 9 10 12 13 14 14 13 14 14
15 12 12 5 6 7 10 18 21 21 26 14 21 19 21 15 15 4 2 6 8 8 9 10 13 15 14 14 12 9 9 8 7 8 8 12 10 8 8 9 11 13 12 13
9 9 5 2 4 5 4 9 11 19 18 17 16 14 16 6 4 5 5 6 6 4 5 8 10 14 16 15 13 15 10 10 8 8 11 10 8 7 7 8 10 9 9 9
11 6 9 11 9 6 6 12 9 5 6 13 13 20 3 2 4 4 5 6 5 4 5 5 4 9 11 14 17 17 15 13 11 10 10 8 7 8 8 7 6 7 9 7
16 10 4 4 5 9 9 13 16 13 7 5 4 8 7 7 5 7 6 6 6 7 9 11 10 11 14 12 13 17 17 15 12 9 9 9 8 10 8 7 7 6 4 8
11 8 4 5 6 3 5 4 8 8 8 9 14 2 7 6 5 5 5 6 7 8 8 8 8 10 13 13 15 15 15 16 14 11 9 9 8 10 8 8 7 5 5 4
5 6 6 3 7 8 7 3 1 5 1 6 0 6 6 3 3 2 8 10 12 10 10 13 14 13 13 15 15 15 15 15 16 17 14 10 8 10 10 9 7 4 4 5
7 4 7 3 2 6 5 4 2 8 2 9 12 9 9 6 4 5 11 13 11 11 15 14 13 13 13 14 12 15 15 14 16 17 17 12 8 10 10 7 5 4 5 5
7 7 4 4 4 5 12 4 5 5 9 11 13 14 9 8 9 11 11 13 14 16 17 16 14 15 14 10 9 14 16 16 17 16 16 14 8 5 4 6 3 4 7 8
2 5 6 2 3 7 14 19 13 15 10 8 11 11 11 10 10 11 11 12 12 14 15 14 14 18 15 12 12 16 17 17 18 18 14 13 11 3 3 5 5 4 5 7
5 11 5 6 8 12 12 13 16 15 14 13 11 11 11 11 11 11 11 12 12 12 14 15 17 17 19 17 17 15 17 17 17 18 13 11 10 5 2 2 2 5 6 5
6 11 5 8 8 5 13 14 14 13 14 13 12 12 12 11 11 13 13 13 14 14 14 15 16 17 20 20 20 18 16 16 18 17 13 9 7 6 4 3 4 5 5 7
9 8 5 3 6 5 7 10 15 14 14 13 14 15 13 11 13 14 13 14 14 15 16 15 16 18 19 19 20 20 17 16 18 17 13 10 8 6 3 3 3 6 6 8
Wind_Direction
188 177 206 205 197 203 185 228 226 219 231 246 236 254 248 241 235 244 258 264 265 264 261 218 211 205 198 191 183 190 193 195 186 197 191 195 205 201 205 202 197 197 197 200
171 217 211 145 187 196 215 236 250 270 269 210 253 266 244 241 236 220 226 245 261 270 274 258 215 201 200 196 196 189 191 192 201 204 205 210 204 210 208 206 206 203 201 198
194 227 180 183 193 199 219 218 230 223 323 274 264 274 262 264 261 272 263 261 255 238 252 259 251 210 201 201 198 194 194 192 194 200 193 201 181 215 202 204 205 208 203 203
220 228 184 195 206 197 213 209 214 192 124 241 73 276 246 252 272 269 270 258 256 254 252 247 246 212 211 212 210 204 196 190 193 188 197 200 209 210 216 211 211 208 206 207
210 168 192 198 211 190 229 192 199 187 200 82 250 260 279 197 253 257 261 248 243 244 242 246 246 227 210 210 207 205 205 199 190 189 195 205 213 222 223 214 209 207 207 212
216 173 183 208 212 195 139 104 193 225 168 235 237 215 264 246 255 260 261 244 253 260 257 252 252 240 228 207 208 204 202 205 197 194 199 201 209 218 215 211 207 211 212 210
215 228 212 184 173 191 166 137 217 225 215 242 205 179 241 261 253 246 253 237 246 252 263 261 257 253 242 211 203 204 205 209 204 203 201 207 209 210 213 213 212 207 215 212
189 205 221 199 201 173 192 189 192 203 184 229 171 206 244 231 257 247 248 261 261 288 283 285 282 283 262 250 236 215 206 214 210 209 210 213 215 215 218 214 210 214 213 217
190 226 198 197 160 177 194 200 199 89 27 63 221 288 305 251 260 242 235 349 93 53 15 7 6 6 298 285 264 225 227 224 220 214 215 216 215 215 218 222 223 218 216 216
193 216 213 195 142 228 195 148 181 193 204 234 233 234 243 330 306 318 122 120 115 63 48 27 24 348 313 312 301 278 238 226 229 225 221 221 218 222 220 225 219 217 219 216
186 136 206 152 200 196 151 196 167 156 156 189 265 250 220 225 220 121 128 162 114 65 23 288 295 294 298 312 315 303 293 268 253 236 227 227 226 228 230 228 223 216 219 217
203 156 168 196 188 193 208 203 188 181 184 195 130 268 278 147 144 110 127 353 4 340 267 270 272 298 299 296 304 301 296 286 265 257 239 231 228 226 223 229 227 220 222 222
181 189 137 53 18 335 199 198 198 191 109 196 188 237 277 210 189 32 22 42 334 312 328 320 317 300 292 286 284 291 292 277 278 264 254 252 233 223 228 227 223 224 225 224
172 155 195 190 209 143 194 205 198 198 219 208 215 246 267 295 290 333 341 349 29 27 4 358 1 339 315 289 282 284 281 274 272 269 254 251 238 233 231 229 226 218 216 216
188 190 191 165 102 142 195 202 210 209 222 211 238 242 260 252 278 269 303 59 44 30 14 1 349 342 342 336 317 271 277 275 265 259 259 255 248 229 226 224 216 207 204 212
176 193 128 218 144 135 183 215 214 225 226 225 235 247 242 68 65 5 68 72 55 49 33 0 359 351 345 332 320 322 308 296 285 264 254 257 262 261 244 238 224 210 205 192
170 128 170 205 131 92 308 205 184 191 201 210 222 237 291 122 197 108 105 68 43 5 347 349 323 341 331 332 332 329 324 316 303 275 270 265 248 246 238 244 242 225 205 188
167 160 140 158 122 207 261 167 197 204 207 211 270 250 136 183 166 122 81 64 22 12 359 346 344 336 329 326 331 328 323 320 311 288 273 272 263 261 242 211 225 231 208 192
165 132 139 171 174 289 339 137 146 166 241 231 236 171 163 172 131 106 62 47 48 15 356 344 329 324 320 323 332 327 326 322 312 298 281 268 258 258 244 235 220 201 198 175
167 144 118 130 146 197 243 186 150 117 192 326 209 115 115 94 115 286 1 19 18 11 359 341 337 326 324 326 325 327 323 323 323 319 302 283 258 254 250 236 215 193 198 201
158 181 154 156 124 285 255 280 177 132 183 47 55 43 47 76 38 9 2 9 4 353 344 342 333 323 321 319 317 321 318 319 318 310 303 283 242 237 239 226 175 191 178 162
143 139 154 122 115 236 356 357 113 93 50 48 43 31 26 21 19 8 3 351 349 343 342 341 331 324 321 316 313 317 312 317 317 309 304 291 271 247 214 207 203 185 184 173
80 153 151 98 140 62 33 78 51 49 74 47 36 19 7 11 4 346 343 341 338 337 333 332 329 319 319 326 328 315 313 317 318 313 317 309 292 225 192 206 197 196 190 186
52 23 104 138 49 65 51 58 50 44 44 32 21 12 7 352 344 341 336 334 334 337 331 332 327 321 318 328 323 313 312 316 320 318 314 317 299 278 192 185 214 214 190 193
358 327 21 81 97 122 61 42 28 29 28 20 9 5 357 342 340 343 333 333 332 329 331 330 322 318 316 319 316 315 315 317 321 321 314 309 283 271 249 198 210 225 236 206
359 7 7 83 35 331 57 43 20 16 11 3 353 347 346 346 342 340 331 327 323 324 323 319 317 313 311 312 310 312 319 322 322 319 318 314 293 265 243 243 230 245 234 219